TITAN 3C TRANSTAGE DEB, 1680

Orbit data source: Space-Track

TITAN 3C TRANSTAGE DEB, 1680 is space debris in LEO originally from a launch on Fri, 15 Oct 1965 UTC launched from the Air Force Eastern Test Range (AFETR). Debris objects in space refer to the collection of defunct objects orbiting the Earth. Examples of debris include non-operational satellites, rocket bodies, and fragments generated from explosions, collisions, or faulty payload assembly.

Loading next visibility...
Identifier
1680, 1965-082AT
Orbit
LEO
Country
Flag of USUS
Related business
Manufacturer
Unknown
Mission
Spacecraft
Bus & Motor
Unknown
Mass
Unknown
Launch date (UTC)
1965-10-15 (61 years ago)
Launch vehicle
Unknown
Launch site
Air Force Eastern Test Range (AFETR)
Object type
Payload
Rocket body
Debris
Shape & HBR
Unknown shape, 1.2 m
Radar Cross Section
Large (>1 m²)

Expand to show TLE details & history
Last TLE update: 8 hours ago

TLE from 8 hours ago
0 TITAN 3C TRANSTAGE DEB
1 01680U 65082AT  26107.27321130  .00000271  00000-0  42436-4 0  9994
2 01680  32.2544 166.9763 0020326  41.8364 318.3835 14.65690180204719
Epoch: 2026-04-17T06:33Z
TLE epoch observation values (Epoch: 2026-04-17T06:33:25.456Z)
Latitude
0.00003°
Longitude
-136.78849°
Altitude
662.818 km
Speed
7.534 km/s
True Right ascension
11h 07m 54s
True Declination
0° 00' 00"
Sunlit
Object was in full shadow at epoch
Visualization orbit readout
Latitude
Unknown
Longitude
Unknown
Altitude
Unknown
Speed
Unknown
Apparent Right ascension
Unknown
Apparent Declination
Unknown
Sunlit
N/A
Visualization observer readout
Local Sidereal Time
21:41:55
Azimuth
Unknown
Elevation
Unknown
Doppler factor
Unknown
Orbital elements
Apogee altitude
692.786 km
Perigee altitude
664.1 km
Semi-major axis
7,056.58 km
Eccentricity
0.00203
Inclination
32.2544°
RAAN
166.9763°
Arg. of periapsis
41.8364°
True anomaly
318.22851°
Mean anomaly
318.3835°
Eccentric anomaly
318.30604°
Mean motion
3.66144 °/min
Orbital period
98.32 mins
BSTAR
0.000042436

Documentation

Showing up to 5 results
|